GFSSE_prec_precacc12_114.txt.gz
Total_Precipitation_Accumulation
0.00 0.00 0.00 0.00 0.00 0.00 0.00 0.00 0.00 0.00 0.00 0.00 0.00 0.00 0.00 0.00 0.00 0.00 0.00 0.01 0.00 0.01 0.01 0.01 0.00 0.00 0.01 0.01 0.06 0.10 0.03 0.02 0.01 0.02 0.05 0.05 0.02 0.01 0.02 0.07 0.07 0.02 0.04
0.00 0.00 0.00 0.00 0.00 0.00 0.00 0.00 0.00 0.00 0.00 0.00 0.00 0.00 0.00 0.00 0.00 0.00 0.00 0.00 0.01 0.01 0.01 0.01 0.00 0.00 0.00 0.02 0.04 0.03 0.00 0.00 0.00 0.00 0.04 0.07 0.03 0.02 0.02 0.08 0.03 0.02 0.03
0.00 0.00 0.00 0.00 0.00 0.00 0.00 0.00 0.00 0.00 0.00 0.00 0.00 0.00 0.00 0.00 0.00 0.00 0.00 0.01 0.02 0.02 0.01 0.01 0.01 0.01 0.00 0.03 0.06 0.06 0.00 0.00 0.00 0.02 0.08 0.02 0.04 0.06 0.02 0.03 0.01 0.02 0.02
0.00 0.00 0.00 0.00 0.00 0.00 0.00 0.00 0.00 0.00 0.00 0.00 0.00 0.00 0.00 0.00 0.00 0.00 0.00 0.02 0.04 0.03 0.01 0.01 0.02 0.04 0.05 0.04 0.06 0.04 0.00 0.00 0.00 0.02 0.04 0.01 0.03 0.09 0.05 0.00 0.02 0.02 0.01
0.00 0.00 0.00 0.00 0.00 0.00 0.00 0.00 0.00 0.00 0.00 0.00 0.00 0.00 0.00 0.00 0.00 0.02 0.03 0.04 0.07 0.12 0.09 0.03 0.09 0.10 0.03 0.03 0.08 0.10 0.00 0.00 0.00 0.01 0.00 0.01 0.02 0.08 0.04 0.03 0.04 0.08 0.10
0.00 0.00 0.00 0.00 0.00 0.00 0.00 0.00 0.00 0.00 0.00 0.00 0.00 0.00 0.00 0.00 0.02 0.09 0.06 0.07 0.13 0.23 0.28 0.23 0.33 0.30 0.02 0.00 0.00 0.01 0.00 0.00 0.01 0.06 0.02 0.02 0.06 0.05 0.06 0.06 0.05 0.05 0.06
0.00 0.00 0.00 0.00 0.00 0.00 0.00 0.00 0.00 0.00 0.00 0.00 0.00 0.00 0.00 0.03 0.12 0.13 0.13 0.10 0.22 0.28 0.23 0.24 0.16 0.14 0.00 0.00 0.00 0.00 0.00 0.00 0.04 0.09 0.03 0.03 0.10 0.04 0.04 0.02 0.02 0.03 0.02
0.00 0.00 0.00 0.00 0.00 0.00 0.00 0.00 0.00 0.00 0.00 0.00 0.00 0.02 0.01 0.07 0.22 0.11 0.05 0.08 0.10 0.12 0.19 0.16 0.04 0.03 0.04 0.01 0.00 0.02 0.00 0.00 0.03 0.24 0.08 0.05 0.05 0.04 0.03 0.01 0.01 0.00 0.00
0.00 0.00 0.00 0.00 0.00 0.00 0.00 0.00 0.00 0.00 0.00 0.00 0.00 0.12 0.25 0.48 0.38 0.20 0.09 0.22 0.20 0.15 0.37 0.32 0.24 0.51 0.20 0.20 0.17 0.10 0.02 0.05 0.11 0.08 0.01 0.04 0.04 0.03 0.01 0.00 0.00 0.00 0.00
0.00 0.00 0.00 0.00 0.00 0.00 0.00 0.00 0.00 0.00 0.00 0.00 0.00 0.05 0.15 0.28 0.21 0.26 0.27 0.21 0.18 0.16 0.21 0.24 0.51 0.46 0.56 0.35 0.18 0.13 0.06 0.08 0.07 0.09 0.02 0.02 0.03 0.01 0.01 0.00 0.00 0.00 0.00
0.00 0.00 0.00 0.00 0.00 0.00 0.00 0.01 0.01 0.01 0.01 0.00 0.00 0.01 0.15 0.23 0.16 0.14 0.22 0.19 0.13 0.16 0.24 0.31 0.35 0.53 0.56 0.60 0.55 0.40 0.28 0.03 0.13 0.07 0.04 0.02 0.03 0.01 0.01 0.01 0.00 0.00 0.00
0.00 0.00 0.00 0.00 0.00 0.00 0.00 0.01 0.02 0.02 0.02 0.02 0.01 0.01 0.04 0.05 0.08 0.05 0.04 0.02 0.08 0.15 0.30 0.39 0.37 0.44 0.47 0.41 0.50 0.47 0.23 0.16 0.26 0.44 0.13 0.03 0.04 0.01 0.01 0.01 0.00 0.00 0.01
0.00 0.00 0.00 0.00 0.00 0.00 0.00 0.00 0.01 0.02 0.03 0.02 0.03 0.03 0.04 0.09 0.11 0.12 0.15 0.10 0.15 0.13 0.18 0.31 0.20 0.19 0.15 0.20 0.31 0.35 0.39 0.27 0.37 0.30 0.13 0.02 0.03 0.02 0.02 0.01 0.01 0.01 0.01
0.00 0.00 0.00 0.00 0.00 0.00 0.00 0.00 0.00 0.01 0.02 0.02 0.02 0.03 0.06 0.09 0.08 0.08 0.08 0.09 0.07 0.09 0.17 0.22 0.11 0.08 0.06 0.13 0.19 0.20 0.37 0.63 0.64 0.85 0.21 0.03 0.04 0.03 0.02 0.01 0.02 0.02 0.02
0.00 0.00 0.00 0.00 0.00 0.00 0.00 0.00 0.00 0.01 0.01 0.01 0.01 0.03 0.05 0.04 0.05 0.06 0.06 0.06 0.04 0.07 0.21 0.26 0.16 0.12 0.07 0.07 0.09 0.12 0.13 0.20 0.61 0.64 0.38 0.04 0.04 0.03 0.02 0.02 0.03 0.02 0.02
0.00 0.00 0.00 0.00 0.00 0.00 0.00 0.00 0.00 0.00 0.00 0.01 0.01 0.01 0.03 0.05 0.10 0.12 0.10 0.06 0.16 0.33 0.24 0.26 0.23 0.15 0.12 0.09 0.12 0.14 0.11 0.05 0.09 0.17 0.19 0.04 0.02 0.03 0.02 0.03 0.04 0.02 0.02
0.00 0.00 0.00 0.00 0.00 0.00 0.00 0.00 0.00 0.00 0.00 0.00 0.00 0.01 0.01 0.02 0.04 0.08 0.12 0.13 0.15 0.66 0.56 0.38 0.41 0.42 0.30 0.15 0.13 0.14 0.14 0.08 0.06 0.05 0.06 0.02 0.02 0.03 0.03 0.04 0.03 0.03 0.02
0.00 0.00 0.00 0.00 0.00 0.00 0.00 0.00 0.00 0.00 0.00 0.00 0.00 0.00 0.00 0.01 0.01 0.03 0.07 0.12 0.18 0.33 0.42 0.40 0.48 0.46 0.46 0.22 0.15 0.12 0.06 0.06 0.15 0.08 0.02 0.00 0.01 0.02 0.02 0.03 0.02 0.02 0.02
0.00 0.00 0.00 0.00 0.00 0.00 0.00 0.00 0.00 0.00 0.00 0.00 0.00 0.00 0.01 0.01 0.01 0.01 0.04 0.13 0.19 0.24 0.30 0.38 0.39 0.51 0.46 0.38 0.25 0.16 0.10 0.06 0.04 0.02 0.01 0.00 0.00 0.01 0.01 0.02 0.02 0.02 0.01
0.00 0.00 0.00 0.00 0.00 0.00 0.00 0.00 0.00 0.00 0.00 0.01 0.01 0.01 0.01 0.01 0.01 0.02 0.04 0.10 0.30 0.43 0.37 0.36 0.49 0.56 0.54 0.49 0.35 0.31 0.20 0.10 0.04 0.01 0.00 0.00 0.00 0.01 0.01 0.01 0.01 0.01 0.00
0.00 0.00 0.00 0.00 0.00 0.00 0.00 0.00 0.00 0.00 0.01 0.01 0.01 0.01 0.01 0.02 0.02 0.05 0.07 0.09 0.21 0.36 0.41 0.28 0.41 0.60 0.63 0.52 0.44 0.43 0.32 0.19 0.07 0.02 0.01 0.00 0.01 0.00 0.01 0.01 0.00 0.00 0.00
0.00 0.00 0.00 0.00 0.00 0.00 0.00 0.00 0.00 0.00 0.00 0.00 0.01 0.02 0.02 0.02 0.02 0.05 0.10 0.14 0.19 0.32 0.45 0.33 0.31 0.45 0.48 0.44 0.37 0.35 0.35 0.24 0.13 0.04 0.01 0.00 0.00 0.00 0.01 0.01 0.00 0.00 0.00
0.00 0.00 0.00 0.00 0.00 0.00 0.00 0.00 0.00 0.00 0.01 0.01 0.01 0.02 0.02 0.03 0.04 0.05 0.08 0.13 0.13 0.14 0.25 0.36 0.35 0.26 0.23 0.31 0.28 0.20 0.19 0.11 0.07 0.05 0.02 0.01 0.00 0.00 0.00 0.00 0.00 0.00 0.00
0.00 0.00 0.00 0.00 0.00 0.00 0.00 0.00 0.00 0.00 0.00 0.00 0.00 0.01 0.02 0.03 0.05 0.04 0.10 0.18 0.26 0.19 0.21 0.29 0.39 0.35 0.26 0.28 0.23 0.14 0.06 0.06 0.06 0.07 0.05 0.02 0.01 0.00 0.00 0.00 0.00 0.00 0.00
0.00 0.00 0.00 0.00 0.00 0.00 0.00 0.00 0.00 0.00 0.00 0.00 0.00 0.01 0.02 0.04 0.04 0.07 0.05 0.14 0.26 0.17 0.13 0.17 0.30 0.39 0.32 0.28 0.23 0.21 0.13 0.08 0.06 0.06 0.06 0.04 0.03 0.00 0.00 0.00 0.00 0.00 0.00
0.00 0.00 0.00 0.00 0.00 0.00 0.00 0.00 0.00 0.00 0.00 0.00 0.00 0.00 0.01 0.02 0.05 0.07 0.18 0.14 0.11 0.07 0.05 0.05 0.11 0.17 0.24 0.28 0.26 0.26 0.17 0.10 0.06 0.05 0.03 0.03 0.03 0.01 0.00 0.00 0.00 0.00 0.00

GFSSE_prec_precacc12_117.txt.gz
Total_Precipitation_Accumulation
0.00 0.00 0.00 0.00 0.00 0.00 0.00 0.00 0.00 0.00 0.00 0.00 0.00 0.00 0.00 0.00 0.00 0.00 0.00 0.01 0.00 0.00 0.01 0.01 0.00 0.01 0.03 0.03 0.08 0.11 0.03 0.05 0.06 0.04 0.07 0.05 0.01 0.00 0.03 0.08 0.07 0.02 0.05
0.00 0.00 0.00 0.00 0.00 0.00 0.00 0.00 0.00 0.00 0.00 0.00 0.00 0.00 0.00 0.00 0.00 0.00 0.00 0.00 0.01 0.01 0.01 0.01 0.00 0.01 0.02 0.02 0.04 0.04 0.00 0.00 0.00 0.02 0.04 0.06 0.01 0.01 0.02 0.09 0.03 0.02 0.03
0.00 0.00 0.00 0.00 0.00 0.00 0.00 0.00 0.00 0.00 0.00 0.00 0.00 0.00 0.00 0.00 0.00 0.00 0.00 0.00 0.01 0.02 0.01 0.01 0.01 0.01 0.01 0.03 0.05 0.06 0.00 0.00 0.01 0.03 0.08 0.01 0.04 0.10 0.03 0.03 0.00 0.02 0.02
0.00 0.00 0.00 0.00 0.00 0.00 0.00 0.00 0.00 0.00 0.00 0.00 0.00 0.00 0.00 0.00 0.00 0.00 0.00 0.00 0.01 0.02 0.01 0.01 0.02 0.03 0.03 0.02 0.04 0.04 0.00 0.00 0.00 0.02 0.04 0.01 0.03 0.17 0.07 0.00 0.02 0.03 0.02
0.00 0.00 0.00 0.00 0.00 0.00 0.00 0.00 0.00 0.00 0.00 0.00 0.00 0.00 0.00 0.00 0.00 0.01 0.02 0.01 0.04 0.08 0.06 0.02 0.07 0.09 0.02 0.01 0.03 0.05 0.00 0.00 0.01 0.02 0.01 0.01 0.02 0.12 0.08 0.06 0.07 0.09 0.11
0.00 0.00 0.00 0.00 0.00 0.00 0.00 0.00 0.00 0.00 0.00 0.00 0.00 0.00 0.00 0.01 0.02 0.05 0.05 0.04 0.09 0.18 0.28 0.26 0.32 0.30 0.02 0.00 0.00 0.00 0.00 0.02 0.09 0.13 0.14 0.04 0.13 0.12 0.08 0.08 0.09 0.07 0.07
0.00 0.00 0.00 0.00 0.00 0.00 0.00 0.00 0.00 0.00 0.00 0.00 0.00 0.00 0.00 0.03 0.11 0.04 0.01 0.00 0.12 0.25 0.25 0.31 0.18 0.14 0.00 0.00 0.00 0.01 0.00 0.03 0.15 0.18 0.17 0.08 0.11 0.06 0.04 0.03 0.04 0.05 0.03
0.00 0.00 0.00 0.00 0.00 0.00 0.00 0.00 0.00 0.00 0.00 0.00 0.00 0.01 0.01 0.07 0.21 0.09 0.03 0.06 0.09 0.10 0.22 0.19 0.06 0.04 0.04 0.02 0.01 0.05 0.01 0.02 0.13 0.47 0.63 0.21 0.11 0.04 0.04 0.01 0.02 0.00 0.00
0.00 0.00 0.00 0.00 0.00 0.00 0.00 0.00 0.00 0.00 0.00 0.00 0.00 0.07 0.16 0.36 0.26 0.19 0.09 0.25 0.23 0.21 0.38 0.28 0.26 0.51 0.21 0.22 0.18 0.11 0.02 0.06 0.14 0.27 0.66 0.16 0.08 0.03 0.02 0.00 0.00 0.00 0.00
0.00 0.00 0.00 0.00 0.00 0.00 0.00 0.00 0.00 0.00 0.00 0.00 0.00 0.05 0.13 0.23 0.14 0.16 0.21 0.16 0.18 0.22 0.21 0.21 0.48 0.39 0.53 0.36 0.18 0.13 0.06 0.08 0.08 0.46 0.40 0.16 0.08 0.03 0.03 0.01 0.00 0.00 0.00
0.00 0.00 0.00 0.00 0.00 0.00 0.00 0.00 0.00 0.00 0.00 0.00 0.00 0.01 0.15 0.22 0.16 0.13 0.18 0.15 0.10 0.15 0.18 0.19 0.20 0.29 0.41 0.51 0.50 0.40 0.28 0.03 0.15 0.22 0.27 0.15 0.15 0.04 0.04 0.02 0.00 0.00 0.00
0.00 0.00 0.00 0.00 0.00 0.00 0.00 0.00 0.01 0.01 0.01 0.01 0.01 0.01 0.04 0.05 0.08 0.05 0.04 0.02 0.06 0.08 0.14 0.17 0.17 0.25 0.35 0.32 0.47 0.47 0.23 0.16 0.27 0.51 0.25 0.13 0.14 0.02 0.03 0.01 0.01 0.00 0.00
0.00 0.00 0.00 0.00 0.00 0.00 0.00 0.00 0.00 0.01 0.02 0.01 0.02 0.02 0.04 0.09 0.11 0.12 0.15 0.09 0.14 0.06 0.06 0.12 0.08 0.10 0.13 0.17 0.30 0.35 0.39 0.28 0.42 0.45 0.36 0.13 0.11 0.02 0.01 0.01 0.01 0.01 0.01
0.00 0.00 0.00 0.00 0.00 0.00 0.00 0.00 0.00 0.01 0.01 0.01 0.02 0.02 0.05 0.09 0.08 0.07 0.07 0.07 0.05 0.06 0.08 0.13 0.09 0.07 0.05 0.12 0.19 0.20 0.37 0.63 0.66 0.90 0.33 0.20 0.16 0.06 0.02 0.01 0.02 0.02 0.02
0.00 0.00 0.00 0.00 0.00 0.00 0.00 0.00 0.00 0.00 0.01 0.01 0.01 0.02 0.02 0.02 0.04 0.06 0.05 0.05 0.03 0.05 0.15 0.21 0.14 0.09 0.05 0.07 0.11 0.12 0.13 0.20 0.61 0.65 0.47 0.24 0.22 0.12 0.01 0.02 0.04 0.02 0.02
0.00 0.00 0.00 0.00 0.00 0.00 0.00 0.00 0.00 0.00 0.00 0.01 0.01 0.01 0.02 0.03 0.09 0.11 0.09 0.05 0.10 0.12 0.18 0.21 0.15 0.07 0.07 0.09 0.16 0.15 0.15 0.08 0.09 0.18 0.30 0.16 0.23 0.13 0.03 0.03 0.04 0.02 0.02
0.00 0.00 0.00 0.00 0.00 0.00 0.00 0.00 0.00 0.00 0.00 0.00 0.00 0.01 0.01 0.01 0.03 0.08 0.12 0.11 0.09 0.12 0.14 0.24 0.26 0.29 0.24 0.16 0.16 0.15 0.17 0.13 0.08 0.06 0.09 0.07 0.05 0.06 0.02 0.03 0.03 0.03 0.03
0.00 0.00 0.00 0.00 0.00 0.00 0.00 0.00 0.00 0.00 0.00 0.00 0.00 0.00 0.00 0.01 0.01 0.03 0.06 0.08 0.11 0.13 0.12 0.18 0.30 0.33 0.41 0.22 0.17 0.15 0.13 0.12 0.17 0.12 0.04 0.02 0.02 0.02 0.02 0.03 0.02 0.03 0.03
0.00 0.00 0.00 0.00 0.00 0.00 0.00 0.00 0.00 0.00 0.00 0.00 0.00 0.00 0.00 0.00 0.01 0.01 0.02 0.03 0.04 0.08 0.10 0.21 0.26 0.42 0.45 0.37 0.26 0.19 0.16 0.14 0.09 0.12 0.06 0.01 0.01 0.01 0.01 0.02 0.02 0.02 0.02
0.00 0.00 0.00 0.00 0.00 0.00 0.00 0.00 0.00 0.00 0.00 0.00 0.00 0.00 0.00 0.00 0.00 0.01 0.02 0.04 0.05 0.14 0.13 0.26 0.41 0.48 0.51 0.48 0.36 0.32 0.31 0.25 0.13 0.04 0.04 0.02 0.01 0.01 0.01 0.01 0.02 0.02 0.01
0.00 0.00 0.00 0.00 0.00 0.00 0.00 0.00 0.00 0.00 0.00 0.02 0.00 0.00 0.00 0.01 0.01 0.01 0.02 0.04 0.11 0.12 0.11 0.19 0.33 0.47 0.57 0.52 0.46 0.48 0.37 0.28 0.20 0.09 0.02 0.01 0.01 0.00 0.01 0.01 0.01 0.01 0.01
0.00 0.00 0.00 0.00 0.00 0.00 0.00 0.00 0.00 0.00 0.00 0.00 0.01 0.00 0.00 0.00 0.01 0.01 0.02 0.05 0.12 0.15 0.20 0.17 0.19 0.31 0.40 0.44 0.38 0.40 0.43 0.38 0.31 0.18 0.05 0.02 0.01 0.00 0.01 0.01 0.00 0.00 0.00
0.00 0.00 0.00 0.00 0.00 0.00 0.00 0.00 0.00 0.00 0.01 0.01 0.01 0.01 0.01 0.01 0.01 0.02 0.03 0.04 0.10 0.09 0.11 0.21 0.19 0.16 0.17 0.29 0.28 0.24 0.27 0.20 0.14 0.19 0.07 0.02 0.01 0.00 0.00 0.01 0.00 0.00 0.00
0.00 0.00 0.00 0.00 0.00 0.00 0.00 0.00 0.00 0.00 0.00 0.00 0.00 0.00 0.01 0.01 0.01 0.01 0.02 0.02 0.08 0.12 0.09 0.14 0.26 0.26 0.18 0.23 0.23 0.15 0.07 0.07 0.10 0.15 0.08 0.04 0.02 0.00 0.00 0.00 0.00 0.00 0.00
0.00 0.00 0.00 0.00 0.00 0.00 0.00 0.00 0.00 0.00 0.00 0.00 0.00 0.01 0.01 0.02 0.03 0.02 0.02 0.02 0.07 0.05 0.05 0.09 0.21 0.31 0.28 0.25 0.22 0.21 0.14 0.09 0.12 0.16 0.17 0.10 0.07 0.02 0.00 0.00 0.00 0.00 0.00
0.00 0.00 0.00 0.00 0.00 0.00 0.00 0.00 0.00 0.00 0.00 0.00 0.00 0.00 0.01 0.02 0.03 0.03 0.03 0.04 0.04 0.03 0.02 0.03 0.09 0.15 0.23 0.27 0.26 0.27 0.18 0.12 0.09 0.08 0.07 0.08 0.07 0.03 0.01 0.00 0.00 0.00 0.00

GFSSE_prec_precacc12_120.txt.gz
Total_Precipitation_Accumulation
0.00 0.00 0.00 0.00 0.00 0.00 0.00 0.00 0.00 0.00 0.00 0.00 0.00 0.00 0.00 0.00 0.00 0.00 0.00 0.00 0.00 0.00 0.00 0.00 0.00 0.03 0.04 0.05 0.08 0.09 0.09 0.14 0.18 0.12 0.07 0.05 0.01 0.00 0.03 0.07 0.07 0.01 0.04
0.00 0.00 0.00 0.00 0.00 0.00 0.00 0.00 0.00 0.00 0.00 0.00 0.00 0.00 0.00 0.00 0.00 0.00 0.00 0.00 0.00 0.01 0.01 0.00 0.00 0.01 0.02 0.02 0.04 0.05 0.04 0.03 0.02 0.04 0.04 0.03 0.01 0.01 0.02 0.08 0.02 0.02 0.03
0.00 0.00 0.00 0.00 0.00 0.00 0.00 0.00 0.00 0.00 0.00 0.00 0.00 0.00 0.00 0.00 0.00 0.00 0.00 0.00 0.00 0.02 0.01 0.01 0.00 0.01 0.01 0.02 0.04 0.06 0.01 0.00 0.01 0.03 0.06 0.03 0.03 0.11 0.04 0.04 0.00 0.02 0.02
0.00 0.00 0.00 0.00 0.00 0.00 0.00 0.00 0.00 0.00 0.00 0.00 0.00 0.00 0.00 0.00 0.00 0.00 0.00 0.00 0.00 0.01 0.01 0.01 0.01 0.03 0.02 0.02 0.04 0.05 0.00 0.00 0.00 0.02 0.06 0.08 0.05 0.19 0.07 0.02 0.03 0.04 0.04
0.00 0.00 0.00 0.00 0.00 0.00 0.00 0.00 0.00 0.00 0.00 0.00 0.00 0.00 0.00 0.00 0.00 0.00 0.00 0.00 0.01 0.02 0.03 0.01 0.05 0.08 0.02 0.01 0.01 0.01 0.00 0.02 0.04 0.03 0.02 0.03 0.06 0.16 0.11 0.09 0.09 0.10 0.12
0.00 0.00 0.00 0.00 0.00 0.00 0.00 0.00 0.00 0.00 0.00 0.00 0.00 0.00 0.00 0.00 0.01 0.01 0.00 0.00 0.01 0.07 0.17 0.27 0.30 0.28 0.02 0.00 0.00 0.01 0.01 0.04 0.16 0.16 0.19 0.08 0.20 0.15 0.11 0.08 0.09 0.08 0.10
0.00 0.00 0.00 0.00 0.00 0.00 0.00 0.00 0.00 0.00 0.00 0.00 0.00 0.00 0.00 0.01 0.05 0.03 0.00 0.00 0.10 0.20 0.21 0.29 0.19 0.13 0.00 0.00 0.00 0.03 0.04 0.06 0.18 0.21 0.26 0.18 0.20 0.06 0.04 0.03 0.06 0.06 0.05
0.00 0.00 0.00 0.00 0.00 0.00 0.00 0.00 0.00 0.00 0.00 0.00 0.00 0.00 0.00 0.04 0.10 0.02 0.01 0.05 0.09 0.08 0.12 0.09 0.05 0.02 0.04 0.02 0.01 0.07 0.04 0.04 0.13 0.49 0.82 0.34 0.27 0.05 0.04 0.02 0.04 0.03 0.00
0.00 0.00 0.00 0.00 0.00 0.00 0.00 0.00 0.00 0.00 0.00 0.00 0.00 0.06 0.10 0.24 0.16 0.12 0.09 0.24 0.23 0.19 0.25 0.14 0.15 0.32 0.20 0.22 0.18 0.15 0.09 0.07 0.14 0.27 0.69 0.19 0.20 0.08 0.03 0.01 0.03 0.02 0.00
0.00 0.00 0.00 0.00 0.00 0.00 0.00 0.00 0.00 0.00 0.00 0.00 0.00 0.04 0.08 0.15 0.08 0.12 0.19 0.13 0.12 0.17 0.15 0.09 0.26 0.21 0.34 0.32 0.15 0.15 0.13 0.10 0.08 0.46 0.46 0.19 0.20 0.12 0.07 0.03 0.00 0.00 0.00
0.00 0.00 0.00 0.00 0.00 0.00 0.00 0.00 0.00 0.00 0.00 0.00 0.00 0.01 0.08 0.12 0.08 0.07 0.14 0.11 0.05 0.10 0.14 0.13 0.12 0.11 0.15 0.30 0.35 0.41 0.34 0.03 0.15 0.22 0.31 0.18 0.25 0.10 0.06 0.03 0.01 0.00 0.00
0.00 0.00 0.00 0.00 0.00 0.00 0.00 0.00 0.00 0.00 0.00 0.00 0.00 0.00 0.02 0.01 0.05 0.04 0.03 0.01 0.04 0.05 0.08 0.09 0.02 0.08 0.15 0.10 0.26 0.33 0.19 0.16 0.27 0.50 0.25 0.14 0.19 0.03 0.04 0.02 0.01 0.00 0.00
0.00 0.00 0.00 0.00 0.00 0.00 0.00 0.00 0.00 0.00 0.00 0.01 0.01 0.01 0.02 0.06 0.08 0.10 0.12 0.09 0.13 0.05 0.02 0.03 0.01 0.02 0.03 0.01 0.08 0.18 0.31 0.26 0.44 0.46 0.36 0.13 0.18 0.06 0.01 0.01 0.01 0.01 0.00
0.00 0.00 0.00 0.00 0.00 0.00 0.00 0.00 0.00 0.00 0.00 0.01 0.01 0.02 0.04 0.08 0.07 0.07 0.06 0.06 0.05 0.03 0.03 0.07 0.06 0.03 0.01 0.02 0.09 0.15 0.32 0.63 0.66 0.91 0.35 0.20 0.23 0.17 0.04 0.01 0.01 0.02 0.01
0.00 0.00 0.00 0.00 0.00 0.00 0.00 0.00 0.00 0.00 0.00 0.00 0.01 0.01 0.01 0.02 0.02 0.04 0.05 0.04 0.02 0.03 0.07 0.11 0.08 0.04 0.03 0.04 0.07 0.10 0.12 0.20 0.61 0.65 0.47 0.24 0.24 0.19 0.10 0.05 0.03 0.02 0.01
0.00 0.00 0.00 0.00 0.00 0.00 0.00 0.00 0.00 0.00 0.00 0.00 0.01 0.01 0.01 0.02 0.05 0.08 0.07 0.05 0.07 0.11 0.13 0.15 0.11 0.03 0.04 0.06 0.15 0.14 0.14 0.08 0.09 0.18 0.30 0.16 0.27 0.31 0.25 0.10 0.06 0.03 0.02
0.00 0.00 0.00 0.00 0.00 0.00 0.00 0.00 0.00 0.00 0.00 0.00 0.00 0.01 0.01 0.01 0.01 0.03 0.07 0.08 0.08 0.11 0.11 0.16 0.18 0.18 0.14 0.10 0.15 0.15 0.17 0.17 0.09 0.06 0.08 0.06 0.06 0.16 0.26 0.20 0.08 0.04 0.03
0.00 0.00 0.00 0.00 0.00 0.00 0.00 0.00 0.00 0.00 0.00 0.00 0.00 0.00 0.00 0.00 0.01 0.01 0.04 0.07 0.10 0.13 0.11 0.12 0.13 0.16 0.18 0.09 0.16 0.15 0.16 0.16 0.19 0.14 0.04 0.03 0.02 0.04 0.08 0.08 0.05 0.02 0.03
0.00 0.00 0.00 0.00 0.00 0.00 0.00 0.00 0.00 0.00 0.00 0.00 0.00 0.00 0.00 0.00 0.00 0.00 0.01 0.02 0.03 0.06 0.06 0.07 0.05 0.13 0.24 0.24 0.22 0.19 0.17 0.15 0.10 0.13 0.07 0.04 0.02 0.02 0.01 0.02 0.02 0.02 0.02
0.00 0.00 0.00 0.00 0.00 0.00 0.00 0.00 0.00 0.00 0.00 0.00 0.00 0.00 0.00 0.00 0.00 0.01 0.01 0.02 0.02 0.01 0.01 0.06 0.12 0.18 0.26 0.35 0.32 0.31 0.31 0.26 0.15 0.05 0.04 0.03 0.02 0.02 0.01 0.01 0.02 0.02 0.02
0.00 0.00 0.00 0.00 0.00 0.00 0.00 0.00 0.00 0.00 0.00 0.02 0.00 0.00 0.00 0.00 0.00 0.01 0.01 0.01 0.01 0.01 0.02 0.10 0.14 0.17 0.37 0.40 0.42 0.46 0.37 0.29 0.21 0.09 0.03 0.03 0.02 0.01 0.01 0.01 0.01 0.01 0.02
0.00 0.00 0.00 0.00 0.00 0.00 0.00 0.01 0.04 0.07 0.03 0.01 0.01 0.00 0.00 0.00 0.00 0.01 0.01 0.01 0.02 0.02 0.06 0.10 0.10 0.14 0.29 0.42 0.36 0.37 0.45 0.42 0.33 0.18 0.06 0.03 0.02 0.02 0.01 0.00 0.00 0.00 0.01
0.00 0.00 0.00 0.00 0.00 0.00 0.01 0.04 0.06 0.07 0.03 0.01 0.02 0.01 0.01 0.00 0.00 0.01 0.01 0.01 0.01 0.02 0.06 0.08 0.08 0.05 0.09 0.26 0.26 0.23 0.28 0.21 0.15 0.23 0.19 0.04 0.02 0.01 0.00 0.01 0.00 0.00 0.00
0.00 0.00 0.00 0.00 0.01 0.02 0.03 0.03 0.03 0.00 0.00 0.00 0.01 0.01 0.01 0.00 0.01 0.01 0.01 0.01 0.02 0.04 0.04 0.04 0.08 0.08 0.07 0.15 0.21 0.12 0.07 0.08 0.10 0.17 0.20 0.24 0.08 0.01 0.00 0.00 0.00 0.00 0.00
0.00 0.00 0.00 0.00 0.00 0.00 0.00 0.00 0.00 0.01 0.01 0.00 0.00 0.01 0.01 0.01 0.01 0.02 0.02 0.01 0.01 0.02 0.03 0.03 0.07 0.13 0.13 0.14 0.16 0.18 0.14 0.10 0.12 0.18 0.22 0.23 0.25 0.06 0.02 0.01 0.00 0.00 0.00
0.00 0.00 0.00 0.00 0.00 0.00 0.00 0.00 0.00 0.00 0.00 0.00 0.00 0.00 0.01 0.02 0.02 0.03 0.02 0.01 0.01 0.01 0.01 0.02 0.02 0.04 0.10 0.18 0.20 0.23 0.17 0.12 0.09 0.10 0.16 0.20 0.16 0.10 0.06 0.04 0.01 0.00 0.00

GFSSE_prec_precacc12_126.txt.gz
Total_Precipitation_Accumulation
0.00 0.00 0.00 0.00 0.00 0.00 0.00 0.00 0.00 0.00 0.00 0.00 0.00 0.00 0.00 0.00 0.00 0.00 0.00 0.00 0.00 0.00 0.00 0.00 0.00 0.03 0.04 0.06 0.07 0.09 0.10 0.17 0.28 0.31 0.10 0.12 0.07 0.05 0.02 0.02 0.01 0.01 0.09
0.00 0.00 0.00 0.00 0.00 0.00 0.00 0.00 0.00 0.00 0.00 0.00 0.00 0.00 0.00 0.00 0.00 0.00 0.00 0.00 0.00 0.00 0.00 0.00 0.00 0.02 0.03 0.02 0.02 0.04 0.04 0.04 0.05 0.22 0.19 0.26 0.14 0.05 0.06 0.01 0.01 0.04 0.05
0.00 0.00 0.00 0.00 0.00 0.00 0.00 0.00 0.00 0.00 0.00 0.00 0.00 0.00 0.00 0.00 0.00 0.00 0.00 0.00 0.00 0.00 0.00 0.00 0.00 0.00 0.01 0.00 0.02 0.04 0.01 0.00 0.03 0.10 0.19 0.42 0.17 0.12 0.03 0.02 0.03 0.05 0.04
0.00 0.00 0.00 0.00 0.00 0.00 0.00 0.00 0.00 0.00 0.00 0.00 0.00 0.00 0.00 0.00 0.00 0.00 0.00 0.00 0.00 0.00 0.01 0.00 0.00 0.00 0.01 0.01 0.01 0.03 0.00 0.00 0.00 0.00 0.03 0.16 0.07 0.16 0.04 0.03 0.04 0.06 0.08
0.00 0.00 0.00 0.00 0.00 0.00 0.00 0.00 0.00 0.00 0.00 0.00 0.00 0.00 0.00 0.00 0.00 0.00 0.00 0.00 0.00 0.00 0.00 0.00 0.00 0.00 0.00 0.00 0.00 0.00 0.00 0.02 0.04 0.02 0.05 0.13 0.09 0.14 0.14 0.12 0.10 0.11 0.17
0.00 0.00 0.00 0.00 0.00 0.00 0.00 0.00 0.00 0.00 0.00 0.00 0.00 0.00 0.00 0.00 0.00 0.00 0.00 0.00 0.00 0.03 0.04 0.11 0.03 0.00 0.00 0.00 0.00 0.01 0.01 0.04 0.16 0.10 0.17 0.12 0.30 0.16 0.11 0.05 0.07 0.09 0.16
0.00 0.00 0.00 0.00 0.00 0.00 0.00 0.00 0.00 0.00 0.00 0.00 0.00 0.00 0.00 0.00 0.01 0.00 0.00 0.00 0.05 0.09 0.09 0.10 0.04 0.00 0.00 0.00 0.01 0.05 0.04 0.06 0.14 0.13 0.25 0.17 0.34 0.12 0.01 0.01 0.04 0.07 0.09
0.00 0.00 0.00 0.00 0.00 0.00 0.00 0.00 0.00 0.00 0.00 0.00 0.00 0.00 0.00 0.00 0.01 0.00 0.00 0.00 0.02 0.05 0.07 0.02 0.02 0.01 0.00 0.01 0.02 0.07 0.06 0.04 0.10 0.25 0.75 0.30 0.42 0.24 0.03 0.02 0.08 0.09 0.02
0.00 0.00 0.00 0.00 0.00 0.00 0.00 0.00 0.00 0.00 0.00 0.00 0.00 0.00 0.00 0.02 0.00 0.01 0.01 0.05 0.07 0.12 0.12 0.05 0.02 0.00 0.00 0.03 0.02 0.07 0.08 0.03 0.03 0.19 0.67 0.16 0.22 0.14 0.08 0.04 0.05 0.04 0.00
0.00 0.00 0.00 0.00 0.00 0.00 0.00 0.00 0.00 0.00 0.00 0.00 0.00 0.00 0.00 0.00 0.00 0.00 0.02 0.01 0.03 0.09 0.06 0.05 0.00 0.00 0.01 0.03 0.00 0.03 0.07 0.02 0.01 0.37 0.44 0.18 0.23 0.17 0.15 0.04 0.01 0.00 0.00
0.00 0.00 0.00 0.00 0.00 0.00 0.00 0.00 0.00 0.00 0.00 0.00 0.00 0.00 0.00 0.00 0.00 0.00 0.00 0.00 0.01 0.05 0.02 0.03 0.00 0.00 0.00 0.03 0.10 0.21 0.11 0.00 0.02 0.15 0.28 0.17 0.31 0.16 0.13 0.05 0.01 0.00 0.00
0.00 0.00 0.00 0.00 0.00 0.00 0.00 0.00 0.00 0.00 0.00 0.00 0.00 0.00 0.00 0.00 0.00 0.00 0.00 0.00 0.00 0.00 0.00 0.00 0.00 0.00 0.00 0.03 0.08 0.04 0.01 0.00 0.02 0.07 0.12 0.11 0.21 0.13 0.20 0.09 0.03 0.00 0.00
0.00 0.00 0.00 0.00 0.00 0.00 0.00 0.00 0.00 0.00 0.00 0.00 0.00 0.00 0.00 0.00 0.00 0.00 0.00 0.00 0.00 0.00 0.00 0.00 0.00 0.00 0.00 0.02 0.01 0.00 0.00 0.00 0.07 0.16 0.23 0.11 0.19 0.18 0.24 0.08 0.02 0.01 0.00
0.00 0.00 0.00 0.00 0.00 0.00 0.00 0.00 0.00 0.00 0.00 0.00 0.00 0.00 0.00 0.00 0.00 0.00 0.00 0.00 0.00 0.00 0.00 0.00 0.01 0.00 0.00 0.01 0.00 0.00 0.00 0.00 0.02 0.06 0.14 0.18 0.30 0.53 0.20 0.09 0.02 0.02 0.01
0.00 0.00 0.00 0.00 0.00 0.00 0.00 0.00 0.00 0.00 0.00 0.00 0.00 0.00 0.00 0.00 0.00 0.00 0.00 0.00 0.00 0.00 0.00 0.00 0.00 0.00 0.00 0.00 0.02 0.00 0.00 0.00 0.00 0.00 0.09 0.20 0.28 0.42 0.36 0.15 0.09 0.05 0.02
0.00 0.00 0.00 0.00 0.00 0.00 0.00 0.00 0.00 0.00 0.00 0.00 0.00 0.00 0.00 0.00 0.00 0.00 0.00 0.00 0.00 0.00 0.00 0.00 0.00 0.00 0.00 0.00 0.03 0.01 0.04 0.04 0.00 0.01 0.11 0.13 0.34 0.48 0.65 0.45 0.23 0.14 0.06
0.00 0.00 0.00 0.00 0.00 0.00 0.00 0.00 0.00 0.00 0.00 0.00 0.00 0.00 0.00 0.00 0.00 0.00 0.00 0.00 0.00 0.00 0.00 0.00 0.00 0.02 0.02 0.01 0.03 0.01 0.03 0.09 0.03 0.01 0.03 0.05 0.14 0.31 0.51 0.64 0.52 0.26 0.16
0.00 0.00 0.00 0.00 0.00 0.00 0.00 0.00 0.00 0.00 0.00 0.00 0.00 0.00 0.00 0.00 0.00 0.00 0.00 0.00 0.00 0.00 0.00 0.02 0.03 0.04 0.02 0.00 0.04 0.04 0.10 0.10 0.05 0.06 0.02 0.03 0.02 0.05 0.17 0.49 0.61 0.65 0.46
0.00 0.00 0.00 0.00 0.00 0.00 0.00 0.00 0.00 0.00 0.00 0.00 0.00 0.00 0.00 0.00 0.00 0.00 0.00 0.00 0.00 0.00 0.00 0.00 0.00 0.04 0.03 0.01 0.02 0.03 0.08 0.10 0.06 0.11 0.07 0.04 0.03 0.03 0.05 0.21 0.38 0.47 0.78
0.00 0.00 0.00 0.00 0.00 0.00 0.00 0.00 0.00 0.00 0.00 0.00 0.00 0.00 0.00 0.00 0.00 0.00 0.00 0.00 0.00 0.00 0.00 0.00 0.00 0.01 0.01 0.01 0.01 0.02 0.11 0.17 0.11 0.05 0.05 0.04 0.03 0.04 0.04 0.06 0.14 0.16 0.20
0.00 0.00 0.00 0.00 0.00 0.00 0.00 0.00 0.00 0.01 0.00 0.02 0.00 0.00 0.00 0.00 0.00 0.00 0.00 0.00 0.01 0.00 0.00 0.00 0.00 0.01 0.02 0.01 0.06 0.09 0.08 0.11 0.15 0.08 0.03 0.04 0.03 0.03 0.04 0.03 0.07 0.08 0.10
0.00 0.00 0.00 0.00 0.00 0.00 0.00 0.01 0.04 0.08 0.03 0.01 0.02 0.00 0.00 0.00 0.01 0.03 0.01 0.01 0.01 0.02 0.01 0.01 0.01 0.02 0.03 0.04 0.04 0.07 0.13 0.21 0.23 0.16 0.06 0.03 0.03 0.04 0.05 0.04 0.05 0.04 0.03
0.00 0.00 0.00 0.00 0.00 0.00 0.01 0.04 0.07 0.26 0.19 0.05 0.04 0.01 0.07 0.05 0.05 0.03 0.03 0.02 0.02 0.02 0.02 0.02 0.04 0.04 0.03 0.03 0.02 0.05 0.10 0.11 0.10 0.19 0.18 0.04 0.02 0.03 0.07 0.10 0.09 0.08 0.05
0.00 0.00 0.00 0.01 0.03 0.05 0.08 0.10 0.13 0.12 0.07 0.02 0.02 0.07 0.13 0.08 0.06 0.01 0.02 0.02 0.05 0.04 0.03 0.03 0.05 0.03 0.02 0.03 0.04 0.03 0.02 0.02 0.04 0.10 0.16 0.22 0.09 0.07 0.06 0.09 0.12 0.16 0.08
0.00 0.00 0.00 0.00 0.01 0.03 0.07 0.09 0.19 0.21 0.23 0.19 0.24 0.31 0.30 0.20 0.10 0.05 0.03 0.03 0.04 0.03 0.03 0.03 0.05 0.05 0.03 0.02 0.03 0.02 0.03 0.03 0.07 0.13 0.17 0.20 0.32 0.22 0.14 0.10 0.13 0.16 0.06
0.00 0.00 0.00 0.00 0.00 0.01 0.04 0.06 0.09 0.10 0.12 0.13 0.19 0.27 0.30 0.24 0.13 0.07 0.06 0.05 0.04 0.04 0.04 0.04 0.05 0.04 0.04 0.03 0.03 0.02 0.03 0.04 0.04 0.07 0.14 0.19 0.21 0.21 0.20 0.23 0.17 0.17 0.12

GFSSE_prec_precacc12_129.txt.gz
Total_Precipitation_Accumulation
0.00 0.00 0.00 0.00 0.00 0.00 0.00 0.00 0.00 0.00 0.00 0.00 0.00 0.00 0.00 0.00 0.00 0.00 0.00 0.00 0.00 0.00 0.00 0.00 0.00 0.01 0.02 0.04 0.05 0.04 0.07 0.14 0.27 0.45 0.14 0.14 0.10 0.07 0.03 0.01 0.01 0.02 0.14
0.00 0.00 0.00 0.00 0.00 0.00 0.00 0.00 0.00 0.00 0.00 0.00 0.00 0.00 0.00 0.00 0.00 0.00 0.00 0.00 0.00 0.00 0.00 0.00 0.00 0.01 0.01 0.01 0.01 0.02 0.05 0.04 0.06 0.26 0.35 0.38 0.30 0.14 0.17 0.12 0.05 0.07 0.09
0.00 0.00 0.00 0.00 0.00 0.00 0.00 0.00 0.00 0.00 0.00 0.00 0.00 0.00 0.00 0.00 0.00 0.00 0.00 0.00 0.00 0.00 0.00 0.00 0.00 0.00 0.00 0.00 0.01 0.03 0.01 0.00 0.02 0.09 0.21 0.49 0.23 0.12 0.05 0.04 0.08 0.11 0.08
0.00 0.00 0.00 0.00 0.00 0.00 0.00 0.00 0.00 0.00 0.00 0.00 0.00 0.00 0.00 0.00 0.00 0.00 0.00 0.00 0.00 0.00 0.00 0.00 0.00 0.00 0.00 0.00 0.01 0.03 0.00 0.00 0.00 0.00 0.03 0.16 0.08 0.12 0.05 0.09 0.13 0.15 0.14
0.00 0.00 0.00 0.00 0.00 0.00 0.00 0.00 0.00 0.00 0.00 0.00 0.00 0.00 0.00 0.00 0.00 0.00 0.00 0.00 0.00 0.00 0.00 0.00 0.00 0.00 0.00 0.00 0.00 0.00 0.00 0.02 0.03 0.00 0.04 0.14 0.10 0.12 0.13 0.19 0.15 0.15 0.26
0.00 0.00 0.00 0.00 0.00 0.00 0.00 0.00 0.00 0.00 0.00 0.00 0.00 0.00 0.00 0.00 0.00 0.00 0.00 0.00 0.00 0.01 0.01 0.07 0.02 0.00 0.00 0.00 0.00 0.01 0.01 0.02 0.07 0.03 0.06 0.10 0.23 0.11 0.18 0.13 0.05 0.07 0.19
0.00 0.00 0.00 0.00 0.00 0.00 0.00 0.00 0.00 0.00 0.00 0.00 0.00 0.00 0.00 0.00 0.00 0.00 0.00 0.00 0.02 0.00 0.02 0.03 0.02 0.00 0.00 0.00 0.01 0.03 0.04 0.03 0.03 0.03 0.11 0.13 0.36 0.13 0.03 0.00 0.02 0.06 0.10
0.00 0.00 0.00 0.00 0.00 0.00 0.00 0.00 0.00 0.00 0.00 0.00 0.00 0.00 0.00 0.00 0.00 0.00 0.00 0.00 0.00 0.01 0.00 0.00 0.00 0.00 0.00 0.00 0.02 0.05 0.06 0.02 0.00 0.02 0.20 0.15 0.40 0.36 0.03 0.02 0.07 0.09 0.03
0.00 0.00 0.00 0.00 0.00 0.00 0.00 0.00 0.00 0.00 0.00 0.00 0.00 0.00 0.00 0.00 0.00 0.00 0.00 0.00 0.01 0.01 0.00 0.00 0.00 0.00 0.00 0.00 0.02 0.06 0.08 0.02 0.00 0.00 0.02 0.03 0.20 0.34 0.10 0.05 0.08 0.06 0.01
0.00 0.00 0.00 0.00 0.00 0.00 0.00 0.00 0.00 0.00 0.00 0.00 0.00 0.00 0.00 0.00 0.00 0.00 0.00 0.00 0.00 0.00 0.00 0.00 0.00 0.00 0.00 0.00 0.00 0.03 0.07 0.02 0.00 0.00 0.06 0.04 0.20 0.34 0.18 0.04 0.05 0.02 0.00
0.00 0.00 0.00 0.00 0.00 0.00 0.00 0.00 0.00 0.00 0.00 0.00 0.00 0.00 0.00 0.00 0.00 0.00 0.00 0.00 0.00 0.00 0.00 0.00 0.00 0.00 0.00 0.00 0.10 0.21 0.11 0.00 0.00 0.00 0.05 0.04 0.24 0.23 0.17 0.11 0.15 0.03 0.01
0.00 0.00 0.00 0.00 0.00 0.00 0.00 0.00 0.00 0.00 0.00 0.00 0.00 0.00 0.00 0.00 0.00 0.00 0.00 0.00 0.00 0.00 0.00 0.00 0.00 0.00 0.00 0.02 0.08 0.04 0.01 0.00 0.00 0.00 0.00 0.00 0.11 0.14 0.33 0.33 0.17 0.06 0.01
0.00 0.00 0.00 0.00 0.00 0.00 0.00 0.00 0.00 0.00 0.00 0.00 0.00 0.00 0.00 0.00 0.00 0.00 0.00 0.00 0.00 0.00 0.00 0.00 0.00 0.00 0.00 0.02 0.01 0.00 0.00 0.00 0.02 0.01 0.00 0.00 0.12 0.20 0.38 0.14 0.02 0.01 0.00
0.00 0.00 0.00 0.00 0.00 0.00 0.00 0.00 0.00 0.00 0.01 0.01 0.00 0.00 0.00 0.00 0.00 0.00 0.00 0.00 0.00 0.00 0.00 0.00 0.00 0.00 0.00 0.01 0.00 0.00 0.00 0.00 0.00 0.01 0.02 0.01 0.17 0.55 0.30 0.11 0.02 0.01 0.00
0.00 0.00 0.00 0.00 0.00 0.00 0.00 0.00 0.00 0.00 0.00 0.00 0.00 0.00 0.00 0.00 0.00 0.00 0.00 0.00 0.00 0.00 0.00 0.00 0.00 0.00 0.00 0.00 0.00 0.00 0.00 0.00 0.00 0.00 0.00 0.00 0.09 0.37 0.51 0.31 0.14 0.05 0.02
0.00 0.00 0.00 0.00 0.00 0.00 0.00 0.00 0.00 0.00 0.00 0.00 0.00 0.00 0.00 0.00 0.00 0.00 0.00 0.00 0.00 0.00 0.00 0.00 0.00 0.00 0.00 0.00 0.00 0.00 0.00 0.00 0.00 0.00 0.00 0.00 0.13 0.44 0.83 0.78 0.47 0.19 0.07
0.00 0.00 0.00 0.00 0.00 0.00 0.00 0.00 0.00 0.00 0.00 0.00 0.00 0.00 0.00 0.00 0.00 0.00 0.00 0.00 0.00 0.00 0.00 0.00 0.00 0.00 0.00 0.00 0.00 0.00 0.00 0.04 0.01 0.00 0.00 0.00 0.10 0.30 0.55 0.76 0.79 0.54 0.32
0.00 0.00 0.00 0.00 0.00 0.00 0.00 0.00 0.00 0.00 0.00 0.00 0.00 0.00 0.00 0.00 0.00 0.00 0.00 0.00 0.00 0.00 0.00 0.00 0.00 0.00 0.00 0.00 0.01 0.00 0.03 0.05 0.02 0.02 0.00 0.01 0.01 0.06 0.21 0.52 0.67 0.87 0.77
0.00 0.00 0.00 0.00 0.00 0.00 0.00 0.00 0.00 0.00 0.00 0.00 0.00 0.00 0.00 0.00 0.00 0.00 0.00 0.00 0.00 0.00 0.00 0.00 0.00 0.00 0.00 0.00 0.00 0.00 0.01 0.02 0.02 0.02 0.01 0.03 0.02 0.03 0.07 0.23 0.39 0.52 0.98
0.00 0.00 0.00 0.00 0.00 0.00 0.00 0.00 0.00 0.00 0.00 0.00 0.00 0.00 0.00 0.00 0.00 0.00 0.00 0.00 0.00 0.00 0.00 0.00 0.00 0.00 0.00 0.00 0.00 0.00 0.01 0.02 0.02 0.02 0.02 0.02 0.03 0.04 0.04 0.06 0.16 0.18 0.24
0.00 0.00 0.00 0.00 0.00 0.00 0.00 0.00 0.00 0.01 0.00 0.00 0.00 0.00 0.00 0.00 0.00 0.00 0.00 0.00 0.00 0.00 0.00 0.00 0.00 0.01 0.02 0.02 0.04 0.05 0.03 0.02 0.02 0.01 0.01 0.03 0.03 0.03 0.04 0.04 0.07 0.12 0.12
0.00 0.00 0.00 0.00 0.00 0.00 0.00 0.01 0.05 0.09 0.04 0.01 0.01 0.00 0.00 0.00 0.01 0.03 0.01 0.01 0.01 0.01 0.01 0.01 0.01 0.02 0.04 0.04 0.04 0.03 0.05 0.08 0.05 0.02 0.02 0.02 0.03 0.04 0.05 0.04 0.05 0.10 0.14
0.00 0.00 0.00 0.00 0.00 0.00 0.01 0.04 0.07 0.26 0.20 0.06 0.04 0.01 0.07 0.05 0.05 0.03 0.04 0.03 0.02 0.02 0.02 0.02 0.04 0.04 0.03 0.04 0.03 0.01 0.02 0.02 0.02 0.06 0.14 0.03 0.02 0.03 0.07 0.10 0.09 0.11 0.12
0.00 0.00 0.00 0.01 0.03 0.05 0.08 0.10 0.13 0.12 0.07 0.02 0.02 0.09 0.14 0.14 0.16 0.14 0.12 0.12 0.11 0.10 0.03 0.03 0.05 0.03 0.03 0.04 0.05 0.03 0.01 0.00 0.01 0.03 0.13 0.21 0.08 0.07 0.07 0.09 0.12 0.17 0.14
0.00 0.00 0.00 0.00 0.01 0.03 0.07 0.09 0.19 0.22 0.24 0.20 0.27 0.39 0.42 0.45 0.49 0.41 0.36 0.34 0.26 0.17 0.09 0.05 0.06 0.06 0.04 0.03 0.04 0.03 0.03 0.01 0.01 0.03 0.06 0.14 0.29 0.21 0.14 0.11 0.14 0.17 0.19
0.00 0.00 0.00 0.00 0.00 0.01 0.04 0.06 0.10 0.12 0.14 0.18 0.24 0.31 0.40 0.46 0.67 0.73 0.76 0.69 0.51 0.18 0.15 0.16 0.19 0.12 0.07 0.04 0.03 0.03 0.02 0.03 0.02 0.05 0.10 0.14 0.17 0.19 0.19 0.23 0.18 0.19 0.27

GFSSE_prec_precacc12_132.txt.gz
Total_Precipitation_Accumulation
0.00 0.00 0.00 0.00 0.00 0.00 0.00 0.00 0.00 0.00 0.00 0.00 0.00 0.00 0.00 0.00 0.00 0.00 0.00 0.00 0.00 0.00 0.00 0.00 0.00 0.00 0.01 0.02 0.03 0.02 0.01 0.04 0.15 0.40 0.16 0.20 0.17 0.14 0.13 0.09 0.08 0.02 0.16
0.00 0.00 0.00 0.00 0.00 0.00 0.00 0.00 0.00 0.00 0.00 0.00 0.00 0.00 0.00 0.00 0.00 0.00 0.00 0.00 0.00 0.00 0.00 0.00 0.00 0.01 0.01 0.01 0.00 0.00 0.01 0.01 0.04 0.26 0.38 0.45 0.31 0.16 0.27 0.24 0.12 0.11 0.13
0.00 0.00 0.00 0.00 0.00 0.00 0.00 0.00 0.00 0.00 0.00 0.00 0.00 0.00 0.00 0.00 0.00 0.00 0.00 0.00 0.00 0.00 0.00 0.00 0.00 0.00 0.00 0.00 0.00 0.00 0.00 0.00 0.02 0.09 0.21 0.46 0.23 0.29 0.12 0.05 0.10 0.15 0.14
0.00 0.00 0.00 0.00 0.00 0.00 0.00 0.00 0.00 0.00 0.00 0.00 0.00 0.00 0.00 0.00 0.00 0.00 0.00 0.00 0.00 0.00 0.00 0.00 0.00 0.00 0.00 0.00 0.00 0.00 0.00 0.00 0.00 0.00 0.02 0.11 0.07 0.15 0.10 0.09 0.18 0.21 0.17
0.00 0.00 0.00 0.00 0.00 0.00 0.00 0.00 0.00 0.00 0.00 0.00 0.00 0.00 0.00 0.00 0.00 0.00 0.00 0.00 0.00 0.00 0.00 0.00 0.00 0.00 0.00 0.00 0.00 0.00 0.00 0.00 0.00 0.00 0.03 0.12 0.07 0.09 0.16 0.18 0.18 0.17 0.32
0.00 0.00 0.00 0.00 0.00 0.00 0.00 0.00 0.00 0.00 0.00 0.00 0.00 0.00 0.00 0.00 0.00 0.00 0.00 0.00 0.00 0.01 0.01 0.01 0.00 0.00 0.00 0.00 0.00 0.01 0.00 0.00 0.00 0.00 0.00 0.06 0.18 0.11 0.18 0.14 0.05 0.07 0.23
0.00 0.00 0.00 0.00 0.00 0.00 0.00 0.00 0.00 0.00 0.00 0.00 0.00 0.00 0.00 0.00 0.00 0.00 0.00 0.00 0.00 0.00 0.00 0.00 0.00 0.00 0.00 0.00 0.00 0.01 0.00 0.00 0.00 0.00 0.01 0.02 0.30 0.14 0.03 0.01 0.02 0.05 0.08
0.00 0.00 0.00 0.00 0.00 0.00 0.00 0.00 0.00 0.00 0.00 0.00 0.00 0.00 0.00 0.00 0.00 0.00 0.00 0.00 0.00 0.00 0.00 0.00 0.00 0.00 0.00 0.00 0.01 0.03 0.02 0.00 0.00 0.00 0.00 0.01 0.29 0.44 0.05 0.02 0.05 0.08 0.03
0.00 0.00 0.00 0.00 0.00 0.00 0.00 0.00 0.00 0.00 0.00 0.00 0.00 0.00 0.00 0.00 0.00 0.00 0.00 0.00 0.00 0.00 0.00 0.00 0.00 0.00 0.00 0.00 0.02 0.02 0.01 0.01 0.00 0.00 0.00 0.00 0.09 0.45 0.19 0.07 0.06 0.05 0.02
0.00 0.00 0.00 0.00 0.00 0.00 0.00 0.00 0.00 0.00 0.00 0.00 0.00 0.00 0.00 0.00 0.00 0.00 0.00 0.00 0.00 0.00 0.00 0.00 0.00 0.00 0.00 0.00 0.00 0.01 0.00 0.00 0.00 0.00 0.00 0.02 0.14 0.44 0.30 0.04 0.07 0.06 0.03
0.00 0.00 0.00 0.00 0.00 0.00 0.00 0.00 0.00 0.00 0.00 0.00 0.00 0.00 0.00 0.00 0.00 0.00 0.00 0.00 0.00 0.00 0.00 0.00 0.00 0.00 0.00 0.00 0.06 0.10 0.03 0.00 0.00 0.00 0.00 0.02 0.15 0.22 0.31 0.32 0.22 0.09 0.04
0.00 0.00 0.00 0.00 0.00 0.00 0.00 0.00 0.00 0.00 0.00 0.00 0.00 0.00 0.00 0.00 0.00 0.00 0.00 0.00 0.00 0.00 0.00 0.00 0.00 0.00 0.00 0.02 0.05 0.01 0.00 0.00 0.00 0.00 0.00 0.00 0.06 0.16 0.43 0.43 0.20 0.12 0.07
0.00 0.00 0.00 0.00 0.00 0.00 0.00 0.00 0.00 0.00 0.00 0.00 0.00 0.00 0.00 0.00 0.00 0.00 0.00 0.00 0.00 0.00 0.00 0.00 0.00 0.00 0.00 0.02 0.01 0.00 0.00 0.00 0.00 0.00 0.00 0.00 0.07 0.23 0.46 0.22 0.09 0.03 0.00
0.00 0.00 0.00 0.00 0.00 0.00 0.00 0.00 0.00 0.00 0.01 0.01 0.00 0.00 0.00 0.00 0.00 0.00 0.00 0.00 0.00 0.00 0.00 0.00 0.00 0.00 0.00 0.01 0.00 0.00 0.00 0.00 0.00 0.00 0.00 0.00 0.11 0.48 0.35 0.23 0.06 0.01 0.00
0.00 0.00 0.00 0.00 0.00 0.00 0.00 0.00 0.00 0.00 0.00 0.00 0.00 0.01 0.00 0.00 0.00 0.00 0.00 0.00 0.00 0.00 0.00 0.00 0.00 0.00 0.00 0.00 0.00 0.00 0.00 0.00 0.00 0.00 0.00 0.00 0.05 0.31 0.48 0.44 0.27 0.06 0.02
0.00 0.00 0.00 0.00 0.00 0.00 0.00 0.00 0.00 0.00 0.00 0.00 0.00 0.00 0.00 0.00 0.00 0.00 0.00 0.00 0.00 0.00 0.00 0.00 0.00 0.00 0.00 0.00 0.00 0.00 0.00 0.00 0.00 0.00 0.00 0.00 0.09 0.26 0.64 0.83 0.75 0.41 0.14
0.00 0.00 0.00 0.00 0.00 0.00 0.00 0.00 0.00 0.00 0.00 0.00 0.00 0.00 0.00 0.00 0.00 0.00 0.00 0.00 0.00 0.00 0.00 0.00 0.00 0.00 0.00 0.00 0.00 0.00 0.00 0.00 0.00 0.00 0.00 0.00 0.09 0.19 0.30 0.59 0.85 0.78 0.56
0.00 0.00 0.00 0.00 0.00 0.00 0.00 0.00 0.00 0.00 0.00 0.00 0.00 0.00 0.00 0.00 0.00 0.00 0.00 0.00 0.00 0.00 0.00 0.00 0.00 0.00 0.00 0.00 0.00 0.00 0.00 0.01 0.00 0.00 0.00 0.00 0.00 0.03 0.15 0.46 0.64 0.91 0.92
0.00 0.00 0.00 0.00 0.00 0.00 0.00 0.00 0.00 0.00 0.00 0.00 0.00 0.00 0.00 0.00 0.00 0.00 0.00 0.00 0.00 0.00 0.00 0.00 0.00 0.00 0.00 0.00 0.00 0.00 0.00 0.01 0.01 0.01 0.00 0.00 0.01 0.02 0.07 0.22 0.38 0.52 0.98
0.00 0.00 0.00 0.00 0.00 0.00 0.00 0.00 0.00 0.00 0.00 0.00 0.00 0.00 0.00 0.00 0.00 0.00 0.00 0.00 0.00 0.00 0.00 0.00 0.00 0.00 0.00 0.00 0.00 0.01 0.00 0.01 0.01 0.01 0.02 0.01 0.02 0.03 0.03 0.07 0.18 0.20 0.24
0.00 0.00 0.00 0.00 0.00 0.00 0.00 0.01 0.00 0.01 0.00 0.00 0.00 0.00 0.00 0.00 0.00 0.00 0.00 0.00 0.00 0.00 0.00 0.00 0.00 0.01 0.02 0.02 0.04 0.04 0.02 0.02 0.02 0.01 0.02 0.02 0.01 0.02 0.03 0.04 0.08 0.15 0.13
0.00 0.00 0.00 0.00 0.00 0.00 0.00 0.00 0.01 0.02 0.01 0.01 0.01 0.00 0.00 0.00 0.01 0.03 0.01 0.00 0.00 0.00 0.01 0.01 0.01 0.02 0.03 0.04 0.03 0.02 0.03 0.03 0.02 0.01 0.01 0.01 0.01 0.03 0.04 0.04 0.05 0.12 0.16
0.00 0.00 0.00 0.00 0.00 0.00 0.00 0.00 0.01 0.19 0.18 0.06 0.02 0.00 0.06 0.05 0.05 0.04 0.04 0.02 0.01 0.01 0.01 0.02 0.03 0.04 0.03 0.04 0.03 0.01 0.02 0.01 0.00 0.01 0.01 0.01 0.01 0.02 0.07 0.10 0.10 0.12 0.15
0.00 0.00 0.00 0.00 0.02 0.03 0.05 0.07 0.10 0.12 0.07 0.02 0.02 0.08 0.14 0.14 0.16 0.14 0.12 0.12 0.11 0.10 0.02 0.03 0.05 0.03 0.06 0.05 0.05 0.03 0.01 0.00 0.00 0.01 0.01 0.01 0.03 0.07 0.07 0.10 0.12 0.17 0.16
0.00 0.00 0.00 0.00 0.01 0.03 0.07 0.08 0.18 0.21 0.23 0.20 0.27 0.41 0.43 0.45 0.49 0.40 0.38 0.38 0.41 0.30 0.17 0.19 0.22 0.13 0.08 0.10 0.04 0.03 0.03 0.01 0.01 0.01 0.01 0.02 0.10 0.16 0.13 0.10 0.14 0.18 0.19
0.00 0.00 0.00 0.00 0.00 0.02 0.09 0.07 0.11 0.13 0.18 0.21 0.25 0.34 0.43 0.51 0.69 0.79 0.88 0.83 0.84 0.73 0.47 0.34 0.31 0.26 0.17 0.12 0.12 0.06 0.03 0.03 0.02 0.02 0.01 0.03 0.08 0.12 0.14 0.19 0.17 0.19 0.28

GFSSE_prec_precacc12_135.txt.gz
Total_Precipitation_Accumulation
0.00 0.00 0.00 0.00 0.00 0.00 0.00 0.00 0.00 0.00 0.00 0.00 0.00 0.00 0.00 0.00 0.00 0.00 0.00 0.00 0.00 0.00 0.00 0.00 0.00 0.00 0.01 0.01 0.01 0.00 0.00 0.01 0.08 0.30 0.18 0.17 0.18 0.17 0.15 0.12 0.19 0.13 0.21
0.00 0.00 0.00 0.00 0.00 0.00 0.00 0.00 0.00 0.00 0.00 0.00 0.00 0.00 0.00 0.00 0.00 0.00 0.00 0.00 0.00 0.00 0.00 0.00 0.00 0.01 0.01 0.00 0.00 0.00 0.01 0.00 0.03 0.17 0.33 0.43 0.31 0.16 0.27 0.26 0.15 0.14 0.17
0.00 0.00 0.00 0.00 0.00 0.00 0.00 0.00 0.00 0.00 0.00 0.00 0.00 0.00 0.00 0.00 0.00 0.00 0.00 0.00 0.00 0.00 0.00 0.00 0.00 0.00 0.00 0.00 0.00 0.00 0.00 0.00 0.02 0.06 0.16 0.36 0.22 0.31 0.22 0.07 0.10 0.21 0.24
0.00 0.00 0.00 0.00 0.00 0.00 0.00 0.00 0.00 0.00 0.00 0.00 0.00 0.00 0.00 0.00 0.00 0.00 0.00 0.00 0.00 0.00 0.00 0.00 0.00 0.00 0.00 0.00 0.00 0.00 0.00 0.00 0.00 0.00 0.02 0.09 0.05 0.15 0.13 0.09 0.19 0.29 0.26
0.00 0.00 0.00 0.00 0.00 0.00 0.00 0.00 0.00 0.00 0.00 0.00 0.00 0.00 0.00 0.00 0.00 0.00 0.00 0.00 0.00 0.00 0.00 0.00 0.00 0.00 0.00 0.00 0.00 0.00 0.00 0.00 0.00 0.03 0.07 0.03 0.04 0.09 0.15 0.15 0.17 0.20 0.37
0.00 0.00 0.00 0.00 0.00 0.00 0.00 0.00 0.00 0.00 0.00 0.00 0.00 0.00 0.00 0.00 0.00 0.00 0.00 0.00 0.00 0.01 0.00 0.00 0.00 0.00 0.00 0.00 0.00 0.00 0.00 0.00 0.00 0.01 0.06 0.02 0.11 0.09 0.17 0.16 0.07 0.08 0.24
0.00 0.00 0.00 0.00 0.00 0.00 0.00 0.00 0.00 0.00 0.00 0.00 0.00 0.00 0.00 0.00 0.00 0.00 0.00 0.00 0.00 0.00 0.00 0.00 0.00 0.00 0.00 0.00 0.00 0.00 0.00 0.00 0.00 0.00 0.00 0.01 0.21 0.12 0.03 0.02 0.06 0.04 0.08
0.00 0.00 0.00 0.00 0.00 0.00 0.00 0.00 0.00 0.00 0.00 0.00 0.00 0.00 0.00 0.00 0.00 0.00 0.00 0.00 0.00 0.00 0.00 0.00 0.00 0.00 0.00 0.00 0.00 0.00 0.00 0.00 0.00 0.00 0.01 0.02 0.18 0.45 0.04 0.01 0.02 0.04 0.02
0.00 0.00 0.00 0.00 0.00 0.00 0.00 0.00 0.00 0.00 0.00 0.00 0.00 0.00 0.00 0.00 0.00 0.00 0.00 0.00 0.00 0.00 0.00 0.00 0.00 0.00 0.00 0.00 0.00 0.00 0.00 0.00 0.00 0.00 0.00 0.01 0.07 0.58 0.25 0.04 0.04 0.04 0.02
0.00 0.00 0.00 0.00 0.00 0.00 0.00 0.00 0.00 0.00 0.00 0.00 0.00 0.00 0.00 0.00 0.00 0.00 0.00 0.00 0.00 0.00 0.00 0.00 0.00 0.00 0.00 0.00 0.00 0.00 0.00 0.00 0.00 0.00 0.00 0.03 0.14 0.52 0.45 0.06 0.06 0.07 0.04
0.00 0.00 0.00 0.00 0.00 0.00 0.00 0.00 0.00 0.00 0.00 0.00 0.00 0.00 0.00 0.00 0.00 0.00 0.00 0.00 0.00 0.00 0.00 0.00 0.00 0.00 0.00 0.00 0.00 0.00 0.00 0.00 0.00 0.00 0.01 0.02 0.11 0.21 0.40 0.45 0.25 0.09 0.04
0.00 0.00 0.00 0.00 0.00 0.00 0.00 0.00 0.00 0.00 0.00 0.00 0.00 0.00 0.00 0.00 0.00 0.00 0.00 0.00 0.00 0.00 0.00 0.00 0.00 0.00 0.00 0.00 0.00 0.00 0.00 0.00 0.00 0.00 0.02 0.00 0.04 0.16 0.46 0.47 0.21 0.13 0.07
0.00 0.00 0.00 0.00 0.00 0.00 0.00 0.00 0.00 0.00 0.00 0.00 0.00 0.00 0.00 0.01 0.04 0.03 0.06 0.00 0.00 0.00 0.00 0.00 0.00 0.00 0.00 0.01 0.00 0.00 0.00 0.00 0.00 0.00 0.01 0.00 0.06 0.19 0.39 0.29 0.18 0.09 0.02
0.00 0.00 0.00 0.00 0.00 0.00 0.00 0.00 0.00 0.00 0.00 0.00 0.00 0.00 0.00 0.01 0.03 0.03 0.03 0.01 0.00 0.00 0.00 0.00 0.00 0.00 0.00 0.00 0.00 0.00 0.00 0.00 0.00 0.00 0.00 0.00 0.06 0.28 0.29 0.26 0.13 0.04 0.05
0.00 0.00 0.00 0.00 0.00 0.00 0.00 0.00 0.00 0.00 0.00 0.00 0.00 0.01 0.00 0.00 0.03 0.03 0.03 0.02 0.00 0.00 0.00 0.00 0.00 0.00 0.00 0.00 0.00 0.00 0.00 0.00 0.00 0.00 0.00 0.00 0.05 0.19 0.38 0.45 0.29 0.07 0.02
0.00 0.00 0.00 0.00 0.00 0.00 0.00 0.00 0.00 0.00 0.00 0.00 0.00 0.01 0.01 0.00 0.01 0.03 0.01 0.01 0.01 0.00 0.00 0.00 0.00 0.00 0.00 0.00 0.00 0.00 0.00 0.00 0.00 0.00 0.00 0.00 0.09 0.22 0.43 0.74 0.75 0.56 0.20
0.00 0.00 0.00 0.00 0.00 0.00 0.00 0.00 0.00 0.00 0.00 0.00 0.00 0.00 0.01 0.01 0.01 0.01 0.01 0.00 0.00 0.01 0.00 0.00 0.00 0.00 0.00 0.00 0.00 0.00 0.00 0.00 0.00 0.00 0.00 0.00 0.05 0.12 0.16 0.33 0.67 0.77 0.73
0.00 0.00 0.00 0.00 0.00 0.00 0.00 0.00 0.00 0.00 0.00 0.00 0.00 0.00 0.01 0.01 0.01 0.01 0.01 0.01 0.01 0.01 0.01 0.00 0.00 0.00 0.00 0.00 0.00 0.00 0.00 0.00 0.00 0.00 0.00 0.00 0.00 0.02 0.07 0.10 0.26 0.68 0.87
0.00 0.00 0.00 0.00 0.00 0.00 0.00 0.00 0.00 0.00 0.00 0.00 0.00 0.00 0.00 0.00 0.00 0.00 0.00 0.00 0.01 0.01 0.00 0.00 0.00 0.00 0.00 0.00 0.00 0.00 0.00 0.00 0.00 0.00 0.00 0.00 0.00 0.00 0.04 0.08 0.14 0.41 0.92
0.00 0.00 0.00 0.00 0.00 0.00 0.00 0.00 0.00 0.00 0.00 0.00 0.00 0.00 0.00 0.00 0.00 0.00 0.00 0.00 0.00 0.00 0.01 0.00 0.00 0.00 0.00 0.00 0.00 0.01 0.01 0.01 0.01 0.01 0.01 0.00 0.00 0.00 0.01 0.05 0.14 0.17 0.21
0.00 0.00 0.00 0.00 0.00 0.00 0.00 0.01 0.00 0.01 0.00 0.00 0.00 0.00 0.00 0.00 0.00 0.00 0.00 0.00 0.00 0.00 0.00 0.00 0.00 0.01 0.02 0.02 0.03 0.03 0.02 0.02 0.02 0.01 0.02 0.01 0.01 0.01 0.01 0.03 0.09 0.17 0.14
0.00 0.00 0.00 0.00 0.00 0.00 0.00 0.00 0.01 0.01 0.00 0.00 0.00 0.00 0.00 0.00 0.01 0.03 0.01 0.00 0.00 0.00 0.01 0.02 0.01 0.02 0.03 0.04 0.02 0.02 0.02 0.01 0.01 0.01 0.01 0.01 0.01 0.01 0.01 0.02 0.04 0.12 0.18
0.00 0.00 0.00 0.00 0.00 0.00 0.00 0.01 0.01 0.02 0.02 0.01 0.00 0.00 0.03 0.02 0.04 0.04 0.04 0.02 0.01 0.00 0.01 0.02 0.02 0.03 0.03 0.03 0.03 0.02 0.02 0.01 0.01 0.01 0.01 0.01 0.00 0.01 0.01 0.03 0.08 0.12 0.16
0.00 0.00 0.00 0.00 0.00 0.00 0.00 0.00 0.04 0.02 0.03 0.02 0.01 0.07 0.11 0.13 0.16 0.14 0.12 0.11 0.10 0.08 0.01 0.02 0.02 0.03 0.11 0.06 0.06 0.06 0.03 0.04 0.02 0.03 0.01 0.00 0.01 0.01 0.02 0.04 0.11 0.17 0.16
0.00 0.00 0.00 0.00 0.00 0.00 0.00 0.00 0.11 0.11 0.06 0.13 0.26 0.39 0.42 0.45 0.49 0.40 0.37 0.37 0.40 0.30 0.17 0.19 0.24 0.17 0.21 0.29 0.09 0.07 0.07 0.06 0.03 0.03 0.02 0.02 0.01 0.00 0.01 0.03 0.11 0.18 0.19
0.01 0.01 0.01 0.00 0.00 0.02 0.10 0.09 0.13 0.13 0.13 0.14 0.20 0.33 0.40 0.49 0.69 0.79 0.87 0.82 0.83 0.75 0.51 0.37 0.33 0.28 0.20 0.21 0.25 0.19 0.12 0.10 0.04 0.03 0.02 0.02 0.02 0.01 0.01 0.07 0.15 0.19 0.28

GFSSE_prec_precacc12_141.txt.gz
Total_Precipitation_Accumulation
0.00 0.00 0.00 0.00 0.00 0.00 0.00 0.00 0.00 0.00 0.00 0.00 0.00 0.00 0.00 0.00 0.00 0.00 0.00 0.00 0.00 0.00 0.00 0.00 0.00 0.00 0.00 0.01 0.01 0.04 0.03 0.03 0.05 0.08 0.14 0.12 0.11 0.11 0.13 0.13 0.20 0.14 0.16
0.00 0.00 0.00 0.00 0.00 0.00 0.00 0.00 0.00 0.00 0.00 0.00 0.00 0.00 0.00 0.00 0.00 0.00 0.00 0.00 0.00 0.00 0.00 0.00 0.00 0.00 0.00 0.00 0.00 0.02 0.03 0.01 0.01 0.02 0.06 0.11 0.04 0.04 0.16 0.15 0.12 0.13 0.16
0.00 0.00 0.00 0.00 0.00 0.00 0.00 0.00 0.00 0.00 0.00 0.00 0.00 0.00 0.00 0.00 0.00 0.00 0.00 0.00 0.00 0.00 0.00 0.00 0.00 0.00 0.00 0.00 0.00 0.00 0.01 0.00 0.01 0.01 0.02 0.01 0.01 0.22 0.18 0.06 0.05 0.16 0.25
0.00 0.00 0.00 0.00 0.00 0.00 0.00 0.00 0.00 0.00 0.00 0.00 0.00 0.00 0.00 0.00 0.00 0.00 0.00 0.00 0.00 0.00 0.00 0.00 0.00 0.00 0.00 0.00 0.00 0.00 0.00 0.00 0.01 0.03 0.13 0.16 0.05 0.08 0.10 0.02 0.09 0.20 0.28
0.00 0.00 0.00 0.00 0.00 0.00 0.00 0.00 0.00 0.00 0.00 0.00 0.00 0.00 0.00 0.00 0.00 0.00 0.00 0.00 0.00 0.00 0.00 0.00 0.00 0.00 0.00 0.00 0.00 0.00 0.00 0.00 0.00 0.11 0.82 0.27 0.06 0.04 0.09 0.03 0.07 0.11 0.25
0.00 0.00 0.00 0.00 0.00 0.00 0.00 0.00 0.00 0.00 0.00 0.00 0.00 0.00 0.00 0.00 0.00 0.00 0.00 0.00 0.00 0.00 0.00 0.00 0.00 0.00 0.00 0.00 0.00 0.00 0.00 0.00 0.02 0.20 0.93 0.19 0.12 0.10 0.05 0.04 0.04 0.10 0.21
0.00 0.00 0.00 0.00 0.00 0.00 0.00 0.00 0.00 0.00 0.00 0.00 0.00 0.00 0.00 0.00 0.00 0.00 0.00 0.00 0.00 0.00 0.00 0.00 0.00 0.00 0.00 0.00 0.00 0.00 0.00 0.00 0.02 0.21 0.60 0.18 0.18 0.13 0.03 0.02 0.08 0.05 0.08
0.00 0.00 0.00 0.00 0.00 0.00 0.00 0.00 0.00 0.00 0.00 0.00 0.00 0.00 0.00 0.00 0.00 0.00 0.00 0.00 0.00 0.00 0.00 0.00 0.00 0.00 0.00 0.00 0.00 0.00 0.00 0.00 0.02 0.08 0.14 0.11 0.14 0.23 0.10 0.02 0.02 0.04 0.07
0.00 0.00 0.00 0.00 0.00 0.00 0.00 0.00 0.00 0.00 0.00 0.00 0.00 0.00 0.00 0.00 0.00 0.00 0.00 0.00 0.00 0.00 0.00 0.00 0.00 0.00 0.00 0.00 0.00 0.00 0.00 0.00 0.01 0.10 0.09 0.08 0.09 0.39 0.31 0.04 0.01 0.03 0.03
0.00 0.00 0.00 0.00 0.00 0.00 0.00 0.00 0.00 0.00 0.00 0.00 0.00 0.00 0.00 0.00 0.00 0.00 0.00 0.00 0.00 0.00 0.00 0.00 0.00 0.00 0.00 0.00 0.00 0.00 0.00 0.00 0.01 0.01 0.03 0.05 0.13 0.35 0.35 0.06 0.03 0.04 0.04
0.00 0.00 0.00 0.00 0.00 0.00 0.00 0.00 0.00 0.00 0.00 0.00 0.00 0.00 0.00 0.00 0.00 0.00 0.00 0.00 0.00 0.00 0.00 0.00 0.00 0.00 0.00 0.00 0.00 0.00 0.00 0.00 0.00 0.01 0.02 0.01 0.05 0.08 0.31 0.38 0.14 0.06 0.04
0.00 0.00 0.00 0.00 0.00 0.00 0.00 0.00 0.00 0.00 0.00 0.00 0.00 0.00 0.00 0.00 0.00 0.00 0.00 0.00 0.00 0.00 0.00 0.00 0.00 0.00 0.00 0.00 0.00 0.00 0.00 0.01 0.01 0.01 0.02 0.00 0.03 0.09 0.18 0.17 0.07 0.08 0.07
0.00 0.00 0.00 0.00 0.01 0.00 0.00 0.00 0.00 0.00 0.00 0.00 0.00 0.00 0.00 0.01 0.05 0.03 0.06 0.01 0.00 0.00 0.00 0.00 0.00 0.00 0.00 0.00 0.00 0.00 0.00 0.00 0.00 0.01 0.01 0.00 0.03 0.10 0.10 0.17 0.18 0.14 0.05
0.00 0.00 0.00 0.05 0.04 0.01 0.00 0.00 0.00 0.00 0.00 0.00 0.00 0.00 0.00 0.02 0.04 0.05 0.04 0.01 0.00 0.00 0.00 0.00 0.00 0.00 0.00 0.00 0.01 0.01 0.00 0.00 0.02 0.03 0.01 0.00 0.00 0.05 0.11 0.19 0.12 0.06 0.07
0.00 0.00 0.00 0.00 0.10 0.16 0.12 0.02 0.00 0.00 0.00 0.00 0.00 0.00 0.00 0.01 0.04 0.05 0.05 0.03 0.00 0.00 0.00 0.00 0.00 0.00 0.00 0.00 0.00 0.00 0.00 0.00 0.01 0.04 0.02 0.00 0.00 0.01 0.08 0.23 0.17 0.04 0.02
0.00 0.00 0.00 0.00 0.01 0.14 0.27 0.27 0.19 0.01 0.00 0.00 0.00 0.00 0.00 0.02 0.03 0.05 0.04 0.02 0.01 0.00 0.00 0.00 0.00 0.00 0.00 0.00 0.00 0.00 0.00 0.00 0.00 0.00 0.00 0.00 0.00 0.00 0.04 0.16 0.39 0.45 0.16
0.00 0.00 0.00 0.00 0.00 0.05 0.13 0.12 0.21 0.25 0.11 0.02 0.00 0.00 0.00 0.03 0.05 0.02 0.03 0.01 0.01 0.01 0.00 0.00 0.00 0.00 0.00 0.00 0.00 0.00 0.00 0.00 0.00 0.00 0.00 0.00 0.00 0.00 0.00 0.02 0.13 0.36 0.50
0.00 0.00 0.00 0.00 0.00 0.02 0.12 0.19 0.15 0.29 0.16 0.16 0.05 0.00 0.01 0.02 0.05 0.02 0.02 0.02 0.04 0.01 0.01 0.00 0.00 0.00 0.00 0.00 0.00 0.00 0.00 0.00 0.00 0.00 0.00 0.00 0.00 0.00 0.00 0.00 0.01 0.06 0.21
0.00 0.00 0.00 0.00 0.00 0.00 0.04 0.11 0.18 0.12 0.20 0.12 0.19 0.08 0.02 0.00 0.03 0.03 0.01 0.02 0.08 0.04 0.01 0.00 0.00 0.01 0.00 0.00 0.01 0.00 0.00 0.00 0.00 0.00 0.00 0.00 0.00 0.00 0.01 0.00 0.00 0.00 0.01
0.00 0.00 0.00 0.00 0.00 0.00 0.02 0.07 0.16 0.18 0.16 0.26 0.15 0.12 0.10 0.01 0.01 0.03 0.02 0.02 0.03 0.03 0.01 0.01 0.01 0.01 0.00 0.01 0.00 0.01 0.01 0.00 0.00 0.00 0.01 0.00 0.00 0.00 0.00 0.02 0.03 0.02 0.00
0.00 0.00 0.00 0.00 0.00 0.00 0.02 0.08 0.10 0.08 0.12 0.23 0.14 0.15 0.16 0.14 0.02 0.01 0.02 0.03 0.01 0.01 0.01 0.00 0.02 0.03 0.01 0.01 0.02 0.02 0.02 0.01 0.01 0.01 0.01 0.01 0.00 0.00 0.00 0.00 0.02 0.06 0.03
0.00 0.00 0.00 0.00 0.00 0.00 0.00 0.02 0.07 0.11 0.18 0.22 0.18 0.24 0.19 0.20 0.13 0.02 0.00 0.00 0.00 0.00 0.02 0.02 0.01 0.01 0.02 0.03 0.02 0.02 0.02 0.02 0.01 0.00 0.00 0.00 0.00 0.00 0.00 0.00 0.00 0.02 0.06
0.00 0.00 0.00 0.00 0.00 0.00 0.00 0.02 0.14 0.22 0.31 0.35 0.25 0.19 0.18 0.29 0.23 0.09 0.01 0.01 0.00 0.00 0.01 0.03 0.01 0.01 0.01 0.02 0.03 0.02 0.02 0.01 0.02 0.02 0.00 0.00 0.00 0.00 0.00 0.00 0.01 0.01 0.04
0.00 0.00 0.00 0.00 0.00 0.00 0.00 0.01 0.11 0.12 0.10 0.07 0.07 0.05 0.05 0.15 0.23 0.16 0.04 0.01 0.01 0.01 0.01 0.03 0.03 0.02 0.10 0.05 0.07 0.07 0.04 0.13 0.10 0.09 0.04 0.01 0.01 0.00 0.00 0.02 0.01 0.01 0.01
0.00 0.00 0.00 0.00 0.00 0.00 0.00 0.00 0.10 0.15 0.11 0.14 0.22 0.29 0.34 0.28 0.25 0.15 0.06 0.04 0.16 0.15 0.11 0.17 0.21 0.15 0.20 0.32 0.11 0.07 0.10 0.16 0.16 0.15 0.09 0.09 0.08 0.04 0.04 0.05 0.07 0.03 0.01
0.01 0.01 0.01 0.00 0.00 0.01 0.08 0.06 0.08 0.14 0.21 0.24 0.22 0.27 0.35 0.44 0.35 0.27 0.18 0.15 0.35 0.59 0.38 0.23 0.16 0.18 0.15 0.21 0.31 0.24 0.17 0.12 0.14 0.23 0.17 0.14 0.24 0.16 0.09 0.11 0.10 0.07 0.04